(322554) = 2006 BV143 = 2010 MM38 = 2011 YO52

Discovered at Socorro on 2006-01-22 by LINEAR.

Orbit

Orbit type: Main Belt

Note: WebGL enabled browser required.

epoch2024-03-31.0
epoch JD2460400.5
perihelion date2023-05-25.39789
perihelion JD2460089.89789
argument of perihelion (°)108.80076
ascending node (°)353.45653
inclination (°)13.24511
eccentricity0.2410096
perihelion distance (AU)2.4326614
Tisserand w.r.t. Jupiter3.1
ΔV w.r.t. Earth (km/sec)10.6
semimajor axis (AU)3.2051279
mean anomaly (°)53.35071
mean daily motion (°/day)0.17176550
aphelion distance (AU)3.978
period (years)5.74
P-vector [x]-0.21517170
P-vector [y]0.78733886
P-vector [z]0.57775312
Q-vector [x]-0.97622714
Q-vector [y]-0.15759733
Q-vector [z]-0.14880742
absolute magnitude15.54
phase slope0.15
uncertainty0
referenceMPEC 2024-F14
observations used484
oppositions13
arc length (days)8400
first opposition used2001
last opposition used2024
residual rms (arc-secs)0.69
perturbers coarse indicatorM-v
perturbers precise indicator003Ek
first observation date used2001-03-18.0
last observation date used2024-03-17.0
computer nameMPCLINUX
JD of orbit computation2456406.180036
perihelion JD uncertainty (days)1.4672E-04
argument of perihelion uncertainty (°)6.4582E-05
ascending node uncertainty (°)5.3324E-05
inclination uncertainty (°)1.2326E-05
eccentricity uncertainty 1.1640E-07
perihelion distance uncertainty (AU)3.7627E-07
Minimum Orbit Intersection Distances (in AU)
for orbit epoch: 2460400.5, reference: E2024-G95
Mercury2.12007
Venus1.73176
Earth1.48784
Mars0.87401
Jupiter1.39386
Saturn6.15955
Uranus15.3855
Neptune26.378

Observations

489 total observations over interval: 2001 03 18.21268 – 2024 03 17.511589
These data are available for download (format description).

Date (UT) J2000 RA J2000 Dec Magn Location Ref
2001 03 18.21268 11 19 22.37 +05 45 42.7 19.9 V 691 – Steward Observatory, Kitt Peak-Spacewatch MPS 408902
2001 03 18.23385 11 19 21.17 +05 45 43.3 20.2 V 691 – Steward Observatory, Kitt Peak-Spacewatch MPS 408902
2001 03 18.25496 11 19 19.98 +05 45 43.6 20.8 V 691 – Steward Observatory, Kitt Peak-Spacewatch MPS 408902
2006 01 22.13684 04 01 40.19 +39 36 23.2 19.9   704 – Lincoln Laboratory ETS, New Mexico MPS 162038
2006 01 22.14958 04 01 40.46 +39 36 18.6 19.9   704 – Lincoln Laboratory ETS, New Mexico MPS 162038
2006 01 22.16246 04 01 40.75 +39 36 13.9 19.9   704 – Lincoln Laboratory ETS, New Mexico MPS 162038
2006 01 22.17571 04 01 41.05 +39 36 10.1 19.8   704 – Lincoln Laboratory ETS, New Mexico MPS 162038
2006 01 22.18844 04 01 41.30 +39 36 05.8 20.0   704 – Lincoln Laboratory ETS, New Mexico MPS 162038
2006 01 30.12022 04 05 56.94 +38 52 22.8 18.6 V 703 – Catalina Sky Survey MPS 162038
2006 01 30.12955 04 05 57.44 +38 52 17.6 18.9 V 703 – Catalina Sky Survey MPS 162038
2006 01 30.13874 04 05 57.87 +38 52 15.3 19.5 V 703 – Catalina Sky Survey MPS 162038
2006 01 30.14737 04 05 58.09 +38 52 12.7 19.2 V 703 – Catalina Sky Survey MPS 162038
2010 06 21.949406 00 08 22.23 -02 03 27.4   C51 – WISE MPS 335486
2010 06 21.94941 00 08 22.24 -02 03 27.4   C51 – WISE MPS 335486
2010 06 22.081709 00 08 26.68 -02 02 46.6   C51 – WISE MPS 335486
2010 06 22.214014 00 08 31.06 -02 02 07.0   C51 – WISE MPS 335486
2010 06 22.346317 00 08 35.369 -02 01 26.18   C51 – WISE MPS 904063
2010 06 22.478620 00 08 40.00 -02 00 45.4   C51 – WISE MPS 335486
2010 06 22.677013 00 08 46.43 -01 59 45.8   C51 – WISE MPS 335486
2010 06 22.94162 00 08 55.17 -01 58 22.3   C51 – WISE MPS 335486
2010 06 23.073925 00 08 59.51 -01 57 43.7   C51 – WISE MPS 335486
2010 06 23.20623 00 09 03.88 -01 57 03.2   C51 – WISE MPS 335486
2010 09 11.26696 23 58 20.27 +00 18 49.5 20.6 R I41 – Palomar Mountain--ZTF MPS 1530817
2010 09 11.31104 23 58 18.08 +00 18 44.5 20.6 R I41 – Palomar Mountain--ZTF MPS 1530817
2010 09 14.35203 23 55 46.98 +00 13 38.6 21.1 R I41 – Palomar Mountain--ZTF MPS 1530817
2010 09 14.39847 23 55 44.62 +00 13 33.6 20.8 R I41 – Palomar Mountain--ZTF MPS 1530817
2010 09 19.27970 23 51 35.15 +00 04 44.0 20.3 R I41 – Palomar Mountain--ZTF MPS 1530817
2010 09 19.32523 23 51 32.74 +00 04 38.2 20.3 R I41 – Palomar Mountain--ZTF MPS 1530817
2010 10 09.20548 23 34 53.94 -00 30 55.3 19.3 V G96 – Mt. Lemmon Survey MPS 408902
2010 10 09.21233 23 34 53.61 -00 30 56.0 19.5 V G96 – Mt. Lemmon Survey MPS 408902
2010 10 09.21926 23 34 53.29 -00 30 56.5 19.6 V G96 – Mt. Lemmon Survey MPS 408902
2010 10 09.22616 23 34 52.96 -00 30 57.2 19.6 V G96 – Mt. Lemmon Survey MPS 408902
2010 10 29.18836 23 23 02.43 -00 44 51.3 20.2 V G96 – Mt. Lemmon Survey MPS 408902
2010 10 29.19355 23 23 02.32 -00 44 51.2 20.1 V G96 – Mt. Lemmon Survey MPS 408902
2010 10 29.19882 23 23 02.18 -00 44 51.2 20.3 V G96 – Mt. Lemmon Survey MPS 408902
2010 10 29.20405 23 23 02.07 -00 44 51.1 20.4 V G96 – Mt. Lemmon Survey MPS 408902
2011 01 23.10279 00 03 16.16 +06 00 46.0 21.1 V G96 – Mt. Lemmon Survey MPS 408902
2011 01 23.10804 00 03 16.45 +06 00 49.1 20.6 V G96 – Mt. Lemmon Survey MPS 408902
2011 01 23.11331 00 03 16.84 +06 00 51.9 20.7 V G96 – Mt. Lemmon Survey MPS 408902
2011 01 23.11858 00 03 17.17 +06 00 55.2 20.7 V G96 – Mt. Lemmon Survey MPS 408902
2011 12 26.47558 08 46 30.43 +37 18 01.5 19.0 V G96 – Mt. Lemmon Survey MPS 406072
2011 12 26.48250 08 46 30.18 +37 18 02.9 18.9 V G96 – Mt. Lemmon Survey MPS 406072
2011 12 26.48941 08 46 29.92 +37 18 04.3 19.0 V G96 – Mt. Lemmon Survey MPS 406072
2011 12 26.49632 08 46 29.67 +37 18 05.5 18.9 V G96 – Mt. Lemmon Survey MPS 406072
2012 01 02.27822 08 41 52.90 +37 39 07.3 18.5 V 703 – Catalina Sky Survey MPS 406072
2012 01 02.28751 08 41 52.36 +37 39 10.0 18.7 V 703 – Catalina Sky Survey MPS 406072
2012 01 02.29671 08 41 51.93 +37 39 11.4 18.4 V 703 – Catalina Sky Survey MPS 406072
2012 01 02.30594 08 41 51.50 +37 39 13.2 18.5 V 703 – Catalina Sky Survey MPS 406072
2012 01 14.26657 08 30 41.97 +38 00 27.6 18.2 V 703 – Catalina Sky Survey MPS 408902
2012 01 14.27164 08 30 41.65 +38 00 27.9 18.7 V 703 – Catalina Sky Survey MPS 408902
2012 01 14.27678 08 30 41.29 +38 00 28.6 18.6 V 703 – Catalina Sky Survey MPS 408902
2012 01 14.28192 08 30 40.93 +38 00 28.5 18.5 V 703 – Catalina Sky Survey MPS 408902
2012 01 21.17068 08 23 14.53 +37 59 34.1 18.3 V 703 – Catalina Sky Survey MPS 408902
2012 01 21.17631 08 23 14.10 +37 59 34.2 18.2 V 703 – Catalina Sky Survey MPS 408902
2012 01 21.18196 08 23 13.74 +37 59 33.6 18.5 V 703 – Catalina Sky Survey MPS 408902
2012 01 21.18772 08 23 13.34 +37 59 33.2 18.5 V 703 – Catalina Sky Survey MPS 408902
2012 01 28.46651 08 15 17.098 +37 46 11.61 19.0 w F51 – Pan-STARRS 1, Haleakala MPS 410282
2012 01 28.48050 08 15 16.169 +37 46 09.12 18.9 w F51 – Pan-STARRS 1, Haleakala MPS 410282
2012 01 28.49446 08 15 15.242 +37 46 06.80 19.0 w F51 – Pan-STARRS 1, Haleakala MPS 410282
2012 01 28.50839 08 15 14.318 +37 46 04.40 19.0 w F51 – Pan-STARRS 1, Haleakala MPS 410282
2012 02 10.26385 08 03 06.87 +36 52 10.2 18.8 V 703 – Catalina Sky Survey MPS 411660
2012 02 10.28112 08 03 05.86 +36 52 04.6 18.8 V 703 – Catalina Sky Survey MPS 411660
2012 02 10.28956 08 03 05.43 +36 52 01.9 18.4 V 703 – Catalina Sky Survey MPS 411660
2013 04 18.46226 14 10 28.426 -26 15 49.21 20.3 w F51 – Pan-STARRS 1, Haleakala MPS 464974
2013 04 18.48479 14 10 27.174 -26 15 47.17 20.6 w F51 – Pan-STARRS 1, Haleakala MPS 464974
2015 10 16.22461 20 53 10.640 -25 28 54.38 21.6 w F51 – Pan-STARRS 1, Haleakala MPS 635271
2015 10 16.23540 20 53 10.717 -25 28 51.75 21.6 w F51 – Pan-STARRS 1, Haleakala MPS 635271
2015 10 16.24619 20 53 10.780 -25 28 49.00 21.7 w F51 – Pan-STARRS 1, Haleakala MPS 635271
2015 10 16.25699 20 53 10.861 -25 28 46.12 21.9 w F51 – Pan-STARRS 1, Haleakala MPS 635271
2016 08 10.51521 01 33 59.340 +13 56 30.27 20.8 w F51 – Pan-STARRS 1, Haleakala MPS 724829
2016 08 10.55401 01 33 59.803 +13 56 43.71 20.7 w F51 – Pan-STARRS 1, Haleakala MPS 724829
2016 08 12.52529 01 34 23.282 +14 07 57.98 20.8 w F51 – Pan-STARRS 1, Haleakala MPS 724829
2016 08 12.53632 01 34 23.391 +14 08 01.71 20.8 w F51 – Pan-STARRS 1, Haleakala MPS 724829
2016 08 12.54740 01 34 23.485 +14 08 05.55 20.8 w F51 – Pan-STARRS 1, Haleakala MPS 724829
2016 08 12.55852 01 34 23.593 +14 08 09.30 20.7 w F51 – Pan-STARRS 1, Haleakala MPS 724829
2016 09 06.38541 01 32 04.10 +16 01 54.8 20.3 V G96 – Mt. Lemmon Survey MPS 729689
2016 09 06.39259 01 32 03.91 +16 01 56.3 19.9 V G96 – Mt. Lemmon Survey MPS 729689
2016 09 06.39967 01 32 03.72 +16 01 57.6 20.5 V G96 – Mt. Lemmon Survey MPS 729689
2016 09 06.40682 01 32 03.53 +16 01 58.5 20.4 V G96 – Mt. Lemmon Survey MPS 729689
2016 09 07.94775 01 31 26.76 +16 07 01.0 19.2 R 461 – University of Szeged, Piszkesteto Stn. (Konkol MPS 729689
2016 09 07.95100 01 31 26.72 +16 07 02.2 19.0 R 461 – University of Szeged, Piszkesteto Stn. (Konkol MPS 729689
2016 09 07.95425 01 31 26.62 +16 07 02.3 18.9 R 461 – University of Szeged, Piszkesteto Stn. (Konkol MPS 729689
2016 09 07.95757 01 31 26.54 +16 07 03.0 19.3 R 461 – University of Szeged, Piszkesteto Stn. (Konkol MPS 729689
2016 09 08.96038 01 31 00.73 +16 10 10.7   246 – Klet Observatory-KLENOT MPS 729689
2016 09 08.96058 01 31 00.71 +16 10 10.9   246 – Klet Observatory-KLENOT MPS 729689
2016 09 08.96269 01 31 00.70 +16 10 11.8   246 – Klet Observatory-KLENOT MPS 729689
2016 09 08.96328 01 31 00.66 +16 10 10.0   246 – Klet Observatory-KLENOT MPS 729689
2016 09 26.29693 01 20 10.63 +16 44 59.2 19.8 V G96 – Mt. Lemmon Survey MPS 732091
2016 09 26.30121 01 20 10.42 +16 44 59.2 19.8 V G96 – Mt. Lemmon Survey MPS 732091
2016 09 26.30549 01 20 10.22 +16 44 59.6 19.8 V G96 – Mt. Lemmon Survey MPS 732091
2016 10 04.69373 01 13 02.35 +16 47 51.7 19.7 R D29 – Purple Mountain Observatory, XuYi Station MPS 734010
2016 10 04.70787 01 13 01.55 +16 47 51.8 19.1 R D29 – Purple Mountain Observatory, XuYi Station MPS 734010
2016 10 04.72201 01 13 00.80 +16 47 51.0 19.3 R D29 – Purple Mountain Observatory, XuYi Station MPS 734010
